Location: Bratislava
(48.1500°N, 17.1170°E)
Time: 11:32:09
(UTC+02:00)

ISS - Visible Passes

Search period start: 27 May 2018 00:00
Search period end: 06 June 2018 00:00
Orbit: 402 x 407 km, 51.6° (Epoch: 27 May)

Date Brightness Start Highest point End Pass type
(mag) Time Alt. Az. Time Alt. Az. Time Alt. Az.
27 May -3.7 00:23:05 10° WNW 00:26:20 71° NNE 00:26:26 71° NE visible
27 May -2.7 21:54:06 10° W 21:57:16 45° N 22:00:27 10° ENE visible
27 May -3.2 23:30:52 10° WNW 23:34:05 54° NNE 23:35:44 25° E visible
28 May -1.6 01:07:26 10° WNW 01:08:21 17° W 01:08:21 17° W visible
28 May -2.8 22:38:37 10° WNW 22:41:48 46° N 22:44:58 10° E visible
29 May -3.3 00:15:09 10° WNW 00:17:42 49° W 00:17:42 49° W visible
29 May -2.6 21:46:19 10° WNW 21:49:27 43° N 21:52:37 10° ENE visible
29 May -3.8 23:22:55 10° WNW 23:26:12 81° NNE 23:27:06 44° ESE visible
30 May -3.3 22:30:40 10° WNW 22:33:55 59° NNE 22:36:31 15° E visible
31 May -2.3 00:07:17 10° WNW 00:09:09 26° WSW 00:09:09 26° WSW visible
31 May -2.9 21:38:24 10° WNW 21:41:36 48° N 21:44:47 10° E visible
31 May -3.8 23:14:56 10° WNW 23:18:09 58° SSW 23:18:35 52° S visible
01 Jun -3.9 22:22:39 10° WNW 22:25:56 89° SSW 22:28:04 20° ESE visible
01 Jun -1.5 23:59:41 10° W 00:00:41 15° WSW 00:00:41 15° WSW visible
02 Jun -3.5 21:30:22 10° WNW 21:33:38 65° NNE 21:36:53 10° E visible
02 Jun -2.8 23:07:02 10° W 23:09:58 30° SW 23:10:11 30° SSW visible
03 Jun -3.5 22:14:37 10° WNW 22:17:48 49° SSW 22:19:42 21° SE visible
04 Jun -3.8 21:22:16 10° WNW 21:25:32 78° SSW 21:28:49 10° ESE visible
04 Jun -1.8 22:59:32 10° W 23:01:35 16° SW 23:01:52 15° SW visible
05 Jun -2.4 22:06:43 10° W 22:09:28 25° SW 22:11:26 15° S visible
